TimeEDT,TemperatureF,Dew PointF,Humidity,Sea Level PressureIn,VisibilityMPH,Wind Direction,Wind SpeedMPH,Gust SpeedMPH,PrecipitationIn,Events,Conditions,WindDirDegrees,DateUTC
12:53 AM,51.1,44.1,77,29.88,10.0,Calm,Calm,-,N/A,,Clear,0,2014-03-11 04:53:00
1:53 AM,50.0,43.0,77,29.88,10.0,Calm,Calm,-,N/A,,Clear,0,2014-03-11 05:53:00
2:53 AM,48.9,43.0,80,29.88,10.0,Calm,Calm,-,N/A,,Clear,0,2014-03-11 06:53:00
3:53 AM,46.9,43.0,86,29.84,10.0,Calm,Calm,-,N/A,,Clear,0,2014-03-11 07:53:00
4:53 AM,46.0,42.1,86,29.83,10.0,Calm,Calm,-,N/A,,Clear,0,2014-03-11 08:53:00
5:53 AM,45.0,42.1,90,29.83,10.0,Calm,Calm,-,N/A,,Clear,0,2014-03-11 09:53:00
6:53 AM,43.0,39.9,89,29.84,6.0,Calm,Calm,-,N/A,,Clear,0,2014-03-11 10:53:00
7:53 AM,42.1,39.9,92,29.83,6.0,Calm,Calm,-,N/A,,Clear,0,2014-03-11 11:53:00
8:53 AM,48.0,45.0,89,29.85,8.0,Calm,Calm,-,N/A,,Clear,0,2014-03-11 12:53:00
9:53 AM,57.9,46.9,67,29.86,10.0,SW,3.5,-,N/A,,Clear,230,2014-03-11 13:53:00
10:53 AM,64.0,45.0,50,29.85,10.0,Calm,Calm,-,N/A,,Clear,0,2014-03-11 14:53:00
11:53 AM,72.0,42.1,34,29.84,10.0,NW,8.1,-,N/A,,Clear,310,2014-03-11 15:53:00
12:53 PM,73.9,39.9,29,29.80,10.0,WSW,3.5,-,N/A,,Clear,240,2014-03-11 16:53:00
1:53 PM,77.0,37.0,24,29.78,10.0,WSW,6.9,-,N/A,,Clear,240,2014-03-11 17:53:00
2:53 PM,81.0,36.0,20,29.75,10.0,West,12.7,18.4,N/A,,Clear,270,2014-03-11 18:53:00
3:53 PM,82.0,36.0,19,29.73,10.0,West,11.5,21.9,N/A,,Clear,260,2014-03-11 19:53:00
4:53 PM,82.0,37.9,21,29.72,10.0,West,13.8,-,N/A,,Clear,270,2014-03-11 20:53:00
5:53 PM,82.0,41.0,23,29.71,10.0,West,8.1,-,N/A,,Clear,260,2014-03-11 21:53:00
6:53 PM,80.1,44.1,28,29.72,10.0,SW,8.1,-,N/A,,Clear,230,2014-03-11 22:53:00
7:53 PM,75.9,46.0,35,29.73,10.0,SW,4.6,-,N/A,,Clear,230,2014-03-11 23:53:00
8:53 PM,73.0,48.0,41,29.74,10.0,SSW,5.8,-,N/A,,Clear,210,2014-03-12 00:53:00
9:53 PM,71.1,50.0,47,29.75,10.0,SSW,4.6,-,N/A,,Clear,210,2014-03-12 01:53:00
10:53 PM,69.1,51.1,53,29.75,10.0,South,3.5,-,N/A,,Clear,190,2014-03-12 02:53:00
11:53 PM,63.0,51.1,65,29.75,10.0,Calm,Calm,-,N/A,,Clear,0,2014-03-12 03:53:00